SCP
0 0 0 0 0 0 0 0 0 0 0 0 0 0 0 0 0 0 0 0 0 0 0 0 0 0 0 0 0 0 0 0 0 0 0 1 1 1 1 0 1 1 1 1
0 0 0 0 0 0 0 0 0 0 0 0 0 0 0 0 0 0 0 0 0 0 0 0 0 0 0 0 0 0 0 0 0 0 0 1 1 1 1 0 0 1 1 1
0 0 0 0 0 0 0 0 0 0 0 0 0 0 0 0 0 0 0 0 0 0 0 0 0 0 0 0 0 0 0 0 0 0 0 0 1 1 1 1 0 0 1 1
0 0 0 0 0 0 0 0 0 0 0 0 0 0 0 0 0 0 0 0 0 0 0 0 0 0 0 0 0 0 0 0 0 0 0 0 1 1 1 1 0 0 0 0
0 0 0 0 0 0 0 0 0 0 0 0 0 0 0 0 0 0 0 0 0 0 0 0 0 0 0 0 0 0 0 0 0 0 0 0 0 0 1 0 0 0 0 0
0 0 0 0 0 0 0 0 0 0 0 0 0 0 0 0 0 0 0 0 0 0 0 0 0 0 0 0 0 0 0 0 0 0 0 0 0 0 0 0 0 0 0 0
0 0 0 0 0 0 0 0 0 0 0 0 0 0 0 0 0 0 0 0 0 0 0 0 0 0 0 0 0 0 0 0 0 0 0 0 0 0 0 0 0 0 0 0
0 0 0 0 0 0 0 0 0 0 0 0 0 0 0 0 0 0 0 0 0 0 0 0 0 0 0 0 0 0 0 0 0 0 0 0 0 0 0 0 0 0 0 0
0 0 0 0 0 0 0 0 0 0 0 0 0 0 0 0 0 0 0 0 0 0 0 0 0 0 0 0 0 0 0 0 0 0 0 0 0 0 0 0 0 0 0 0
0 0 0 0 0 0 0 0 0 0 0 0 0 0 0 0 0 0 0 0 0 0 0 0 0 0 0 0 0 0 0 0 0 0 0 0 0 0 0 0 0 0 0 0
0 0 0 0 0 0 0 0 0 0 0 0 0 0 0 0 0 0 0 0 0 0 0 0 0 0 0 0 0 0 0 0 0 0 0 0 0 0 0 0 0 0 0 0
0 0 0 0 0 0 0 0 0 0 0 0 0 0 0 0 0 0 0 0 0 0 0 0 0 0 0 0 0 0 0 0 0 0 0 0 0 0 0 0 0 0 0 0
0 0 0 0 0 0 0 0 0 0 0 0 0 0 0 0 0 0 0 0 0 0 0 0 0 0 0 0 0 0 0 0 0 0 0 0 0 0 0 0 0 0 0 0
0 0 0 0 0 0 0 0 0 0 0 0 0 0 0 0 0 0 0 0 0 0 0 0 0 0 0 0 0 0 0 0 0 0 0 0 0 0 0 0 0 0 0 0
0 0 0 0 0 0 0 0 0 0 0 0 0 0 0 0 0 0 0 0 0 0 0 0 0 0 0 0 0 0 0 0 0 0 0 0 0 0 0 0 0 0 0 0
0 0 0 0 0 0 0 0 0 0 0 0 0 0 0 0 0 0 0 0 0 0 0 0 0 0 0 0 0 0 0 0 0 0 0 0 0 0 0 0 0 0 0 0
0 0 0 0 0 0 0 0 0 0 0 0 0 0 0 0 0 0 0 0 0 0 0 0 0 0 0 0 0 0 0 0 0 0 0 0 0 0 0 0 0 0 0 0
0 0 0 0 0 0 0 0 0 0 0 0 0 0 0 0 0 0 0 0 0 0 0 0 0 0 0 0 0 0 0 0 0 0 0 0 0 0 0 0 0 0 0 0
0 0 0 0 0 0 0 0 0 0 0 0 0 0 0 0 0 0 0 0 0 0 0 0 0 0 0 0 0 0 0 0 0 0 0 0 0 0 0 0 0 0 0 0
0 0 0 0 0 0 0 0 0 0 0 0 0 0 0 0 0 0 0 0 0 0 0 0 0 0 0 0 0 0 0 0 0 0 0 0 0 0 0 0 0 0 0 0
0 0 0 0 0 0 0 0 0 0 0 0 0 0 0 0 0 0 0 0 0 0 0 0 0 0 0 0 0 0 0 0 0 0 0 0 0 0 0 0 0 0 0 0
0 0 0 0 0 0 0 0 0 0 0 0 0 0 0 0 0 0 0 0 0 0 0 0 0 0 0 0 0 0 0 0 0 0 0 0 0 0 0 0 0 0 0 0
0 0 0 0 0 0 0 0 0 0 0 0 0 0 0 0 0 0 0 0 0 0 0 0 0 0 0 0 0 0 0 0 0 0 0 0 0 0 0 0 0 0 0 0
0 0 0 0 0 0 0 0 0 0 0 0 0 0 0 0 0 0 0 0 0 0 0 0 0 0 0 0 0 0 0 0 0 0 0 0 0 0 0 0 0 0 0 0
0 0 0 0 0 0 0 0 0 0 0 0 0 0 0 0 0 0 0 0 0 0 0 0 0 0 0 0 0 0 0 0 0 0 0 0 0 0 0 0 0 0 0 0
0 0 0 0 0 0 0 0 0 0 0 0 0 0 0 0 0 0 0 0 0 0 0 0 0 0 0 0 0 0 0 0 0 0 0 0 0 0 0 0 0 0 0 0
0 0 0 0 0 0 0 0 0 0 0 0 0 0 0 0 0 0 0 0 0 0 0 0 0 0 0 0 0 0 0 0 0 0 0 0 0 0 0 0 0 0 0 0
Wind_Speed
10 7 6 10 12 14 16 17 16 17 18 17 14 12 10 8 7 6 6 6 6 6 6 7 7 6 6 7 7 7 7 7 7 7 7 7 7 7 7 8 8 8 8 9
9 10 10 14 16 17 19 19 21 21 22 16 13 9 9 8 6 6 7 7 7 7 7 7 7 7 7 7 7 7 7 7 7 8 8 8 8 8 8 8 8 8 9 9
8 6 7 15 17 19 17 16 16 20 18 12 11 10 9 7 6 7 7 7 7 8 7 7 7 6 7 7 7 7 7 7 7 8 8 8 8 8 8 8 8 8 9 9
4 5 13 8 3 11 15 16 16 15 13 11 11 9 7 6 6 7 7 7 7 7 7 6 6 6 6 6 7 7 7 7 8 8 8 8 9 9 8 7 7 8 8 9
5 9 12 9 6 8 10 11 11 13 13 10 6 5 6 4 4 5 6 6 6 6 6 6 6 6 6 7 7 7 7 8 8 8 8 8 9 8 7 7 7 8 7 8
7 8 10 5 4 5 5 9 7 9 9 7 4 6 3 0 2 4 5 5 5 5 6 6 6 6 6 7 7 8 8 9 8 8 8 8 8 8 7 7 7 7 7 7
12 11 10 4 5 8 8 4 3 5 6 6 7 5 3 2 3 4 5 5 5 6 6 5 6 6 7 7 8 8 9 9 8 8 8 8 8 7 7 7 7 7 8 7
9 11 11 6 9 9 5 0 3 4 5 6 6 5 4 4 4 5 5 5 6 6 6 5 5 6 7 7 8 8 8 8 8 8 7 6 7 7 6 6 7 6 6 6
9 8 3 6 7 5 3 4 4 4 5 5 5 5 5 5 5 5 5 5 5 6 6 6 5 6 7 8 8 8 8 8 7 7 6 6 6 6 6 5 5 5 5 5
8 9 7 6 6 6 5 6 5 5 5 5 6 6 5 5 5 5 5 5 5 5 6 6 6 6 7 7 7 7 8 7 7 6 6 6 5 5 5 4 4 4 5 5
11 9 7 8 8 7 6 6 6 5 5 6 6 6 6 5 5 5 4 4 5 5 6 7 6 6 6 6 6 7 7 6 6 6 5 5 5 5 6 5 5 6 5 5
10 8 8 8 6 6 7 7 6 6 5 5 5 6 6 5 5 4 4 4 5 6 6 6 6 6 6 6 6 6 6 5 5 5 4 4 5 5 6 7 9 9 9 8
12 10 9 8 7 7 7 7 6 6 6 6 5 5 5 5 4 4 4 5 5 6 6 6 6 6 6 5 6 6 6 5 5 4 5 5 5 5 5 6 6 7 8 9
10 9 9 8 7 6 6 5 4 4 4 4 4 4 4 4 4 5 5 5 5 5 6 5 5 6 6 5 6 6 6 5 5 4 4 4 4 4 5 5 6 5 6 8
8 8 8 7 5 5 4 3 3 3 3 2 3 3 4 4 5 4 4 4 4 5 5 5 5 6 6 5 6 6 5 4 4 4 4 4 4 4 4 5 5 5 6 6
5 4 5 5 5 5 4 3 4 4 3 3 3 3 3 4 4 4 3 3 4 5 5 5 5 6 6 5 6 5 4 5 5 4 4 4 4 4 4 4 4 5 5 5
4 5 5 4 4 4 4 4 4 4 3 3 3 3 3 3 3 3 3 3 4 5 5 5 5 5 5 5 5 4 4 4 5 4 3 3 3 3 3 4 4 5 5 5
3 4 4 4 3 3 2 2 2 2 2 2 2 2 2 3 3 3 4 3 3 4 4 4 5 5 5 5 4 3 3 3 3 3 3 3 3 3 3 4 4 5 4 5
1 0 0 0 1 1 1 1 1 1 1 1 2 2 2 3 3 3 3 3 3 4 5 5 6 5 5 5 5 3 3 3 3 3 3 4 4 3 3 3 4 4 4 4
3 2 2 2 2 1 0 1 1 1 1 1 2 2 2 2 2 2 2 3 3 4 5 5 5 4 4 4 5 3 3 3 3 3 3 3 3 3 3 3 3 4 4 4
3 3 3 2 2 2 1 1 0 1 1 1 1 1 2 2 2 2 2 3 4 4 4 6 4 4 4 4 5 3 3 3 3 3 3 3 3 3 3 3 3 3 3 3
2 2 2 1 1 2 2 1 0 0 0 0 0 1 1 2 2 2 3 3 4 5 4 4 4 5 5 5 3 3 3 3 3 3 2 3 3 3 3 3 3 3 3 3
1 1 1 1 1 1 2 2 1 1 1 1 1 1 2 2 2 2 3 3 3 5 5 4 5 7 7 4 3 3 3 3 3 3 3 3 3 3 3 3 3 3 3 3
1 1 1 1 1 1 1 2 2 1 1 1 1 2 2 2 2 2 3 4 6 6 4 5 7 6 6 3 3 3 3 3 3 3 3 3 3 3 3 2 2 2 2 3
1 1 0 0 0 1 1 1 1 1 1 1 2 2 2 2 2 3 3 4 5 6 4 5 6 6 4 3 3 3 2 2 3 3 3 2 2 2 2 2 2 2 2 2
0 0 0 1 1 1 1 1 1 1 1 2 2 2 2 2 2 2 3 3 5 5 4 3 4 4 3 3 3 3 3 3 3 2 2 2 2 2 2 2 3 2 2 2
0 0 0 1 1 1 1 1 1 2 2 2 2 2 2 2 2 3 3 3 3 4 3 3 3 3 3 2 2 2 2 2 2 2 2 2 2 2 2 2 2 2 2 2
Wind_Direction
252 260 241 236 231 223 228 237 249 257 260 267 275 281 284 284 285 286 289 297 302 306 314 319 319 322 323 321 323 321 309 301 298 299 299 298 296 296 295 292 289 285 283 276
246 246 248 254 248 240 240 244 250 259 264 271 276 276 274 272 273 277 289 299 305 308 312 314 315 317 319 320 322 319 311 307 305 302 300 299 299 297 293 291 290 287 282 279
248 244 261 253 241 236 236 234 240 251 260 268 267 270 274 275 273 280 289 300 307 310 312 313 315 314 314 318 318 316 312 308 308 305 301 300 299 297 295 292 291 287 285 283
236 216 241 254 232 229 236 243 242 248 260 266 272 279 278 269 269 278 289 298 306 310 311 313 313 313 311 312 312 310 309 309 309 307 302 301 299 296 295 292 289 287 286 284
214 238 262 259 221 203 218 247 242 243 253 260 273 275 260 251 259 280 294 300 305 309 308 307 309 313 309 306 308 307 307 308 309 307 305 305 301 298 296 293 290 288 286 285
217 233 245 253 168 177 200 253 233 230 239 245 225 252 272 273 281 298 304 305 306 307 305 302 307 309 304 304 306 308 309 309 308 307 303 301 301 302 301 299 295 294 290 285
227 240 257 253 153 163 212 251 169 205 217 219 226 260 301 293 295 302 305 305 304 302 300 303 308 306 302 302 304 309 309 307 307 306 303 301 302 301 302 303 299 296 295 289
217 231 244 166 161 200 240 342 193 215 223 232 248 268 271 277 288 298 300 300 300 298 298 302 304 301 298 301 310 312 308 306 307 310 309 306 306 305 301 301 299 299 298 299
218 234 288 175 202 230 252 245 249 251 247 245 254 257 265 274 283 291 296 299 298 293 295 299 301 299 297 305 312 309 306 307 311 313 311 307 304 304 301 303 302 305 305 306
246 251 250 242 248 252 247 254 260 260 257 253 255 262 270 276 282 289 297 300 299 293 292 297 304 301 299 306 307 305 306 309 311 311 313 313 309 306 306 303 301 304 308 310
248 257 266 253 247 249 248 243 246 254 253 251 255 264 270 275 280 287 294 298 294 290 291 297 302 301 305 307 306 307 308 309 310 310 310 312 314 313 311 305 302 304 305 305
244 246 249 260 261 255 249 252 257 265 267 262 257 263 268 270 276 282 286 288 286 288 292 297 300 302 307 308 307 306 305 309 310 308 307 308 309 313 319 313 318 315 314 311
259 266 263 271 275 269 260 261 266 264 266 271 271 263 265 272 276 274 278 281 283 286 288 293 297 299 305 311 307 302 299 301 301 301 303 305 308 311 317 324 322 321 324 325
257 258 260 260 261 262 261 265 268 269 269 265 265 266 263 266 270 271 277 286 287 287 289 292 293 298 308 310 304 300 299 298 298 297 299 301 304 308 312 316 321 327 333 333
253 249 250 256 263 265 260 249 245 252 254 259 258 257 259 265 270 277 285 292 287 284 288 294 296 303 311 308 302 300 301 301 300 299 299 300 304 307 308 311 315 319 324 332
250 246 238 241 249 254 247 237 239 246 247 252 258 263 268 272 277 284 288 289 286 290 296 299 298 305 309 306 304 300 299 303 303 301 299 300 302 305 309 313 316 317 321 328
231 238 235 238 241 246 244 241 239 242 245 251 261 270 273 273 277 285 293 298 293 293 296 298 301 308 307 304 303 301 302 300 302 300 297 298 300 303 308 311 312 315 320 327
244 248 243 239 237 239 247 248 240 240 250 260 265 261 261 266 277 293 304 309 305 303 306 306 309 311 307 308 308 304 299 299 301 300 300 298 300 303 304 306 312 315 321 328
28 37 346 232 222 211 222 245 255 257 260 248 244 255 268 279 286 293 299 298 301 307 319 322 321 317 313 315 318 307 305 304 301 296 292 297 301 300 302 307 312 318 321 326
62 62 68 65 57 70 190 266 271 273 265 235 233 252 275 294 300 296 292 293 300 307 310 313 314 312 314 314 319 309 306 302 300 301 300 299 301 305 311 315 319 321 322 325
68 66 69 72 59 42 23 339 287 276 287 236 224 250 278 298 301 292 288 295 311 321 315 312 314 313 313 313 312 306 304 303 304 304 305 306 307 309 313 317 318 319 322 326
67 69 68 68 64 32 12 12 14 352 9 359 283 272 283 298 304 297 288 289 306 318 317 310 312 314 317 316 308 308 308 308 306 305 303 303 302 304 309 312 313 318 322 324
65 66 58 55 56 37 32 34 33 26 339 303 286 281 284 292 294 290 299 308 312 316 316 309 312 316 322 322 310 305 304 305 304 302 301 298 295 296 299 304 309 316 320 326
72 59 49 52 76 75 33 4 1 354 337 315 299 290 289 294 295 289 291 306 314 315 311 313 319 323 326 316 306 303 301 301 299 298 298 298 298 299 301 305 311 317 322 324
94 90 96 93 42 349 331 328 336 337 334 325 318 312 300 289 287 301 305 306 313 317 314 315 322 327 325 313 309 306 303 299 298 298 299 302 305 307 310 312 315 317 320 321
126 257 317 310 294 295 296 295 300 309 315 317 322 325 322 312 301 300 302 307 310 313 312 308 310 316 315 311 308 307 304 303 304 303 298 299 303 305 307 313 318 315 316 319
100 329 316 316 318 302 292 287 286 296 298 299 309 314 315 313 313 315 314 311 311 311 309 308 310 313 311 308 307 307 304 302 301 298 297 298 300 300 302 303 307 313 316 321